EDT,Max TemperatureF,Mean TemperatureF,Min TemperatureF,Max Dew PointF,MeanDew PointF,Min DewpointF,Max Humidity, Mean Humidity, Min Humidity, Max Sea Level PressureIn, Mean Sea Level PressureIn, Min Sea Level PressureIn, Max VisibilityMiles, Mean VisibilityMiles, Min VisibilityMiles, Max Wind SpeedMPH, Mean Wind SpeedMPH, Max Gust SpeedMPH,PrecipitationIn, CloudCover, Events, WindDirDegrees
2013-4-1,72,62,53,57,48,36,100,70,28,30.03,29.94,29.86,10,9,4,16,5,22,0.08,3,Rain,285
2013-4-2,66,55,46,39,33,25,68,45,28,30.18,30.11,30.03,10,10,10,14,7,20,0.00,1,,320
2013-4-3,61,52,44,43,31,26,86,48,31,30.20,30.15,30.09,10,10,8,10,5,18,0.12,4,Rain,56
2013-4-4,46,42,39,43,40,37,93,89,82,30.15,30.07,30.00,10,6,2,14,8,29,0.34,8,Rain,76
2013-4-5,66,53,39,46,40,35,100,75,35,30.08,30.00,29.95,10,9,2,13,5,20,0.19,6,Rain,330
2013-4-6,70,54,38,42,37,35,97,56,28,30.20,30.14,30.08,10,10,7,12,3,18,0.00,0,,142
2013-4-7,74,60,46,50,45,40,80,55,35,30.21,30.13,30.07,10,10,10,10,5,17,0.00,1,,159
2013-4-8,78,65,52,54,52,48,89,65,40,30.15,30.08,30.04,10,10,9,18,5,24,0.00,3,,180
2013-4-9,81,67,53,58,55,52,100,71,42,30.21,30.12,30.07,10,9,7,12,3,15,0.00,2,,161
2013-4-10,83,69,54,58,55,53,100,69,37,30.11,30.03,29.91,10,9,6,14,5,17,0.00,1,,166
2013-4-11,80,70,59,66,61,54,93,76,58,29.96,29.81,29.67,10,7,1,31,7,46,1.21,6,Rain-Thunderstorm,180
2013-4-12,68,62,55,63,51,35,97,65,32,29.93,29.79,29.65,10,10,2,21,12,31,0.01,6,Rain,274
2013-4-13,75,60,44,43,38,33,76,51,25,30.03,29.98,29.92,10,10,10,21,7,25,0.00,0,,309
2013-4-14,61,54,47,55,48,39,93,73,53,30.07,29.99,29.93,10,9,4,16,4,29,0.16,4,Rain,94
2013-4-15,75,66,56,59,56,54,93,75,57,30.14,30.01,29.93,10,9,6,10,2,14,0.00,7,,139
2013-4-16,81,71,60,62,60,58,100,76,51,30.25,30.18,30.14,10,9,6,9,3,16,0.00,5,,121
2013-4-17,83,73,62,63,61,59,93,72,51,30.24,30.14,30.06,10,10,9,15,4,23,0.00,3,,160
2013-4-18,81,71,61,60,58,56,100,74,48,30.07,30.00,29.89,10,10,7,17,6,24,0.00,1,,149
2013-4-19,69,57,44,66,54,38,93,80,66,30.05,29.88,29.77,10,8,0,26,10,32,0.45,6,Fog-Rain,235
2013-4-20,64,52,39,37,32,29,76,53,30,30.24,30.17,30.07,10,10,10,17,8,26,0.00,0,,336
2013-4-21,68,55,41,40,37,34,82,57,32,30.34,30.29,30.24,10,10,10,15,6,24,0.00,0,,81
2013-4-22,69,59,49,44,41,36,71,55,39,30.32,30.24,30.15,10,10,10,16,6,24,0.00,0,,75
2013-4-23,73,60,47,49,42,35,77,57,37,30.24,30.17,30.09,10,10,10,10,4,16,0.00,1,,141
2013-4-24,76,65,53,62,55,49,93,72,50,30.13,30.09,30.06,10,10,6,21,7,26,0.06,6,Rain,218
2013-4-25,71,58,45,52,40,28,89,56,22,30.32,30.22,30.14,10,10,9,16,9,20,0.00,4,,309
2013-4-26,75,57,39,44,38,32,85,57,29,30.37,30.31,30.26,10,10,9,13,4,22,0.00,0,,82
2013-4-27,71,64,57,54,50,42,80,62,44,30.30,30.23,30.15,10,10,9,12,6,20,0.01,7,Rain,89
2013-4-28,61,59,56,61,57,54,100,93,86,30.19,30.08,30.00,10,4,1,14,4,23,1.64,8,Rain-Thunderstorm,75
2013-4-29,74,65,56,61,56,52,100,73,46,30.05,30.01,29.91,10,8,1,37,2,49,0.00,7,,18
2013-4-30,78,68,58,63,59,55,100,75,50,30.10,30.02,29.95,10,7,2,9,2,18,0.00,5,,114